Flag for U.S.A. Weather past 2 weeks in Downey, California, U.S.A.

Now
69 °F

Sunny.


Feels Like: 69 °F
Forecast: 56 / 70 °F
Wind: 10 mph from Northwest

Location: Long Beach Airport

Current Time: Apr 19, 2015 at 6:20:58 PM

Latest Report: Apr 19, 2015 at 5:53 PM


Visibility: 10 mi

Pressure: 29.85 "Hg

Humidity: 53%

Dew point: 51 °F

Location of DowneyLocation

Historic Weather in Downey — Graph

°F

Downey temperature yesterday

Maximum temperature yesterday: 77 °F (at 4:53 PM)
Minimum temperature yesterday: 55 °F (at 6:53 AM)
Average temperature yesterday: 65 °F

Past Weeks' High & Low Weather Summary

 TemperatureHumidityPressure
High83 °F (Apr 15, 12:53 PM)90% (Apr 7, 9:00 PM)30.10 "Hg (Apr 7, 9:00 PM)
Low51 °F (Apr 7, 6:53 AM)7% (Apr 16, 11:53 AM)29.84 "Hg (Apr 5, 4:53 PM)
Average64 °F57%29.97 "Hg
* Reported Apr 4 4:53 PM — Apr 19 4:53 PM, Downey, Weather by CustomWeather, © 2015

Note: Actual official high and low records may vary slightly from our data, if they occured in-between our weather recording intervals... More about our weather records

Advertising

Downey weather history for previous 24 hours

 ConditionsComfort  
Time TempWeatherWind HumidityBarometerVisibility
4:53 PM
Sun, Apr 19
71 °FSunny.12 mph44%29.85 "Hg10 mi
3:53 PM73 °FSunny.12 mph48%29.86 "Hg10 mi
2:53 PM76 °FSunny.9 mph37%29.88 "Hg10 mi
1:53 PM72 °FSunny.12 mph49%29.89 "Hg10 mi
12:53 PM70 °FSunny.9 mph57%29.92 "Hg9 mi
11:53 AM69 °FSunny.8 mph61%29.93 "Hg9 mi
10:53 AM68 °FSunny.6 mph63%29.96 "Hg8 mi
9:53 AM67 °FSunny.No wind63%29.96 "Hg8 mi
8:53 AM62 °FSunny.3 mph75%29.97 "Hg7 mi
7:53 AM59 °FFog.3 mph87%29.97 "Hg6 mi
6:53 AM57 °FFog.3 mph87%29.97 "Hg6 mi
5:53 AM56 °FClear.No wind87%29.95 "Hg8 mi
4:53 AM58 °FClear.No wind87%29.94 "Hg7 mi
3:53 AM58 °FClear.3 mph87%29.94 "Hg8 mi
2:53 AM58 °FClear.5 mph84%29.95 "Hg9 mi
1:53 AM59 °FClear.No wind81%29.96 "Hg10 mi
12:53 AM60 °FClear.3 mph78%29.97 "Hg10 mi
11:53 PM
Sat, Apr 18
61 °FClear.3 mph81%29.96 "Hg9 mi
10:53 PM60 °FClear.6 mph83%29.96 "Hg10 mi
9:53 PM61 °FClear.5 mph83%29.96 "Hg9 mi
8:53 PM63 °FClear.8 mph75%29.95 "Hg10 mi
7:53 PM64 °FSunny.10 mph73%29.93 "Hg10 mi
6:53 PM70 °FSunny.13 mph46%29.91 "Hg10 mi
Weather by CustomWeather, © 2015

See weather overviewHow to use our weather pages